| time (UTC) | temp F | wind direction | speed knots | gust knots | rain 1hr in | rain 24hr in | rain mn in | humidity % | barometer mb |
| 20260902143834 | 88 | 98 | 5.2 | 9.6 | 0.00 | 0.00 | 0.00 | 48 | 1021.3 |
| 20260902143314 | 88 | 56 | 4.3 | 11.3 | 0.00 | 0.00 | 0.00 | 47 | 1021.4 |
| 20260902142814 | 88 | 78 | 9.6 | 11.3 | 0.00 | 0.00 | 0.00 | 46 | 1021.4 |
| 20260902142323 | 89 | 98 | 5.2 | 11.3 | 0.00 | 0.00 | 0.00 | 44 | 1021.4 |
| 20260902141823 | 88 | 86 | 9.6 | 13.0 | 0.00 | 0.00 | 0.00 | 41 | 1021.4 |
| 20260902141330 | 89 | 88 | 8.7 | 13.0 | 0.00 | 0.00 | 0.00 | 41 | 1021.3 |
| 20260902140831 | 89 | 72 | 8.7 | 13.0 | 0.00 | 0.00 | 0.00 | 41 | 1021.3 |
| 20260902140338 | 89 | 83 | 5.2 | 11.3 | 0.00 | 0.00 | 0.00 | 40 | 1021.3 |
| 20260902135818 | 89 | 123 | 6.1 | 13.0 | 0.00 | 0.00 | 0.00 | 41 | 1021.3 |
| 20260902135318 | 89 | 80 | 8.7 | 13.0 | 0.00 | 0.00 | 0.00 | 41 | 1021.3 |
| 20260902134822 | 89 | 91 | 7.0 | 12.2 | 0.00 | 0.00 | 0.00 | 40 | 1021.3 |
| 20260902134324 | 89 | 123 | 7.8 | 13.0 | 0.00 | 0.00 | 0.00 | 40 | 1021.3 |
| 20260902133832 | 89 | 103 | 5.2 | 12.2 | 0.00 | 0.00 | 0.00 | 40 | 1021.3 |
| 20260902133330 | 89 | 63 | 7.8 | 12.2 | 0.00 | 0.00 | 0.00 | 40 | 1021.4 |
| 20260902132831 | 89 | 77 | 5.2 | 9.6 | 0.00 | 0.00 | 0.00 | 40 | 1021.4 |
| 20260902132319 | 89 | 88 | 7.8 | 10.4 | 0.00 | 0.00 | 0.00 | 40 | 1021.4 |
| 20260902131818 | 89 | 85 | 7.8 | 10.4 | 0.00 | 0.00 | 0.00 | 40 | 1021.4 |
| 20260902131320 | 89 | 126 | 7.8 | 13.9 | 0.00 | 0.00 | 0.00 | 39 | 1021.5 |
| 20260902130824 | 89 | 93 | 5.2 | 13.9 | 0.00 | 0.00 | 0.00 | 39 | 1021.4 |
| 20260902130325 | 90 | 79 | 5.2 | 8.7 | 0.00 | 0.00 | 0.00 | 39 | 1021.4 |
| 20260902125815 | 89 | 70 | 7.0 | 10.4 | 0.00 | 0.00 | 0.00 | 39 | 1021.4 |
| 20260902125315 | 90 | 67 | 7.0 | 9.6 | 0.00 | 0.00 | 0.00 | 39 | 1021.5 |
| 20260902124814 | 89 | 96 | 7.0 | 10.4 | 0.00 | 0.00 | 0.00 | 39 | 1021.5 |
| 20260902124320 | 89 | 86 | 3.5 | 12.2 | 0.00 | 0.00 | 0.00 | 40 | 1021.5 |
| 20260902123822 | 88 | 93 | 8.7 | 12.2 | 0.00 | 0.00 | 0.00 | 40 | 1021.6 |
| 20260902123337 | 89 | 93 | 5.2 | 10.4 | 0.00 | 0.00 | 0.00 | 41 | 1021.6 |
| 20260902122817 | 89 | 91 | 5.2 | 9.6 | 0.00 | 0.00 | 0.00 | 41 | 1021.7 |
| 20260902122318 | 89 | 110 | 6.1 | 8.7 | 0.00 | 0.00 | 0.00 | 40 | 1021.7 |
| 20260902121826 | 89 | 30 | 3.5 | 8.7 | 0.00 | 0.00 | 0.00 | 40 | 1021.7 |
| 20260902121327 | 89 | 75 | 6.1 | 11.3 | 0.00 | 0.00 | 0.00 | 40 | 1021.8 |
| 20260902120835 | 88 | 123 | 6.1 | 11.3 | 0.00 | 0.00 | 0.00 | 40 | 1021.8 |
| 20260902120332 | 88 | 72 | 7.0 | 11.3 | 0.00 | 0.00 | 0.00 | 40 | 1021.9 |
| 20260902115813 | 88 | 58 | 4.3 | 10.4 | 0.00 | 0.00 | 0.00 | 41 | 1021.9 |
| 20260902115322 | 88 | 125 | 6.1 | 7.8 | 0.00 | 0.00 | 0.00 | 40 | 1022.0 |
| 20260902114823 | 88 | 45 | 2.6 | 8.7 | 0.00 | 0.00 | 0.00 | 41 | 1021.9 |
| 20260902114331 | 88 | 77 | 5.2 | 8.7 | 0.00 | 0.00 | 0.00 | 41 | 1021.9 |
| 20260902113830 | 88 | 96 | 1.7 | 7.8 | 0.00 | 0.00 | 0.00 | 42 | 1021.9 |
| 20260902113331 | 88 | 63 | 5.2 | 8.7 | 0.00 | 0.00 | 0.00 | 41 | 1022.0 |
| 20260902112819 | 88 | 94 | 2.6 | 7.8 | 0.00 | 0.00 | 0.00 | 42 | 1022.0 |
| 20260902112321 | 87 | 63 | 4.3 | 7.8 | 0.00 | 0.00 | 0.00 | 42 | 1022.0 |
| 20260902111823 | 88 | 89 | 3.5 | 7.0 | 0.00 | 0.00 | 0.00 | 42 | 1022.1 |
| 20260902111316 | 87 | 53 | 4.3 | 7.0 | 0.00 | 0.00 | 0.00 | 42 | 1022.2 |
| 20260902110816 | 87 | 84 | 3.5 | 6.1 | 0.00 | 0.00 | 0.00 | 42 | 1022.2 |
| 20260902110325 | 87 | 67 | 3.5 | 6.1 | 0.00 | 0.00 | 0.00 | 42 | 1022.2 |
| 20260902105827 | 87 | 109 | 3.5 | 7.0 | 0.00 | 0.00 | 0.00 | 43 | 1022.2 |
| 20260902105329 | 87 | 89 | 2.6 | 5.2 | 0.00 | 0.00 | 0.00 | 43 | 1022.3 |
| 20260902104920 | 87 | 74 | 0.9 | 6.1 | 0.00 | 0.00 | 0.00 | 42 | 1022.3 |
| 20260902104324 | 86 | 53 | 0.0 | 5.2 | 0.00 | 0.00 | 0.00 | 43 | 1022.3 |
| 20260902103826 | 87 | 91 | 0.0 | 4.3 | 0.00 | 0.00 | 0.00 | 43 | 1022.4 |
| 20260902103332 | 86 | 100 | 0.0 | 4.3 | 0.00 | 0.00 | 0.00 | 44 | 1022.5 |
| 20260902102316 | 87 | 57 | 0.9 | 2.6 | 0.00 | 0.00 | 0.00 | 43 | 1022.6 |
| 20260902101825 | 86 | 92 | 0.0 | 0.9 | 0.00 | 0.00 | 0.00 | 44 | 1022.6 |
| 20260902101325 | 85 | 28 | 0.0 | 2.6 | 0.00 | 0.00 | 0.00 | 45 | 1022.6 |
| 20260902100833 | 85 | 79 | 0.9 | 4.3 | 0.00 | 0.00 | 0.00 | 45 | 1022.7 |
| 20260902100315 | 86 | 95 | 1.7 | 4.3 | 0.00 | 0.00 | 0.00 | 45 | 1022.7 |
| 20260902095817 | 86 | 89 | 0.0 | 0.9 | 0.00 | 0.00 | 0.00 | 43 | 1022.7 |
| 20260902095327 | 85 | 57 | 0.0 | 1.7 | 0.00 | 0.00 | 0.00 | 43 | 1022.7 |
| 20260902094817 | 85 | 84 | 0.0 | 3.5 | 0.00 | 0.00 | 0.00 | 44 | 1022.8 |
| 20260902094317 | 84 | 34 | 0.0 | 3.5 | 0.00 | 0.00 | 0.00 | 44 | 1022.8 |
| 20260902093825 | 84 | 339 | 0.0 | 2.6 | 0.00 | 0.00 | 0.00 | 45 | 1022.8 |
| 20260902093327 | 84 | 335 | 0.0 | 1.7 | 0.00 | 0.00 | 0.00 | 45 | 1022.8 |
| 20260902092836 | 84 | 98 | 0.0 | 2.6 | 0.00 | 0.00 | 0.00 | 45 | 1022.9 |
| 20260902092317 | 84 | 321 | 0.9 | 2.6 | 0.00 | 0.00 | 0.00 | 45 | 1022.8 |
| 20260902091818 | 84 | 1 | 0.0 | 4.3 | 0.00 | 0.00 | 0.00 | 46 | 1022.9 |
| 20260902091324 | 84 | 37 | 0.0 | 1.7 | 0.00 | 0.00 | 0.00 | 47 | 1022.9 |
| 20260902090823 | 83 | 317 | 0.0 | 1.7 | 0.00 | 0.00 | 0.00 | 48 | 1022.7 |
| 20260902090324 | 83 | 15 | 0.0 | 0.9 | 0.00 | 0.00 | 0.00 | 50 | 1022.8 |
| 20260902085831 | 82 | 65 | 0.0 | 1.7 | 0.00 | 0.00 | 0.00 | 52 | 1022.8 |
| 20260902085331 | 82 | 311 | 0.0 | 1.7 | 0.00 | 0.00 | 0.00 | 52 | 1022.6 |
| 20260902084839 | 82 | 98 | 0.0 | 0.9 | 0.00 | 0.00 | 0.00 | 52 | 1022.6 |
| 20260902084321 | 81 | 73 | 0.9 | 0.9 | 0.00 | 0.00 | 0.00 | 51 | 1022.6 |
| 20260902083822 | 81 | 96 | 0.0 | 0.9 | 0.00 | 0.00 | 0.00 | 56 | 1022.6 |
| 20260902083331 | 80 | 96 | 0.0 | 0.9 | 0.00 | 0.00 | 0.00 | 57 | 1022.6 |
| 20260902082832 | 81 | 248 | 0.0 | 0.9 | 0.00 | 0.00 | 0.00 | 56 | 1022.6 |
| 20260902082314 | 81 | 248 | 0.0 | 1.7 | 0.00 | 0.00 | 0.00 | 56 | 1022.6 |
| 20260902081823 | 80 | 248 | 0.0 | 1.7 | 0.00 | 0.00 | 0.00 | 56 | 1022.6 |
| 20260902081324 | 80 | 246 | 0.0 | 0.9 | 0.00 | 0.00 | 0.00 | 58 | 1022.6 |
| 20260902080833 | 78 | 246 | 0.0 | 0.9 | 0.00 | 0.00 | 0.00 | 61 | 1022.6 |
| 20260902080332 | 77 | 245 | 0.0 | 0.9 | 0.00 | 0.00 | 0.00 | 64 | 1022.6 |
| 20260902075813 | 76 | 11 | 0.0 | 1.7 | 0.00 | 0.00 | 0.00 | 65 | 1022.5 |
| 20260902075321 | 76 | 12 | 0.9 | 1.7 | 0.00 | 0.00 | 0.00 | 66 | 1022.5 |
| 20260902074824 | 76 | 85 | 0.9 | 1.7 | 0.00 | 0.00 | 0.00 | 66 | 1022.5 |
| 20260902074332 | 75 | 94 | 0.9 | 1.7 | 0.00 | 0.00 | 0.00 | 68 | 1022.5 |
| 20260902073832 | 75 | 86 | 0.9 | 1.7 | 0.00 | 0.00 | 0.00 | 68 | 1022.5 |
| 20260902073339 | 74 | 67 | 0.0 | 1.7 | 0.00 | 0.00 | 0.00 | 70 | 1022.4 |
| 20260902072819 | 74 | 86 | 0.9 | 1.7 | 0.00 | 0.00 | 0.00 | 70 | 1022.4 |
| 20260902072321 | 73 | 86 | 0.9 | 1.7 | 0.00 | 0.00 | 0.00 | 72 | 1022.5 |
| 20260902070826 | 72 | 226 | 0.0 | 0.9 | 0.00 | 0.00 | 0.00 | 73 | 1022.5 |
| 20260902070334 | 71 | 226 | 0.0 | 1.7 | 0.00 | 0.00 | 0.00 | 73 | 1022.5 |
| 20260902065815 | 71 | 226 | 0.0 | 1.7 | 0.00 | 0.00 | 0.00 | 74 | 1022.5 |
| 20260902065317 | 70 | 79 | 0.0 | 1.7 | 0.00 | 0.00 | 0.00 | 76 | 1022.5 |
| 20260902064817 | 69 | 79 | 0.0 | 1.7 | 0.00 | 0.00 | 0.00 | 79 | 1022.4 |
| 20260902064327 | 69 | 46 | 0.9 | 1.7 | 0.00 | 0.00 | 0.00 | 79 | 1022.3 |
| 20260902063817 | 68 | 262 | 0.9 | 1.7 | 0.00 | 0.00 | 0.00 | 81 | 1022.4 |
| 20260902063326 | 67 | 261 | 0.0 | 0.9 | 0.00 | 0.00 | 0.00 | 81 | 1022.4 |
| 20260902062815 | 67 | 261 | 0.0 | 0.9 | 0.00 | 0.00 | 0.00 | 83 | 1022.3 |
| 20260902062332 | 66 | 261 | 0.0 | 0.9 | 0.00 | 0.00 | 0.00 | 83 | 1022.3 |
| 20260902061821 | 66 | 262 | 0.0 | 0.9 | 0.00 | 0.00 | 0.00 | 83 | 1022.3 |
| 20260902061324 | 67 | 261 | 0.0 | 0.9 | 0.00 | 0.00 | 0.00 | 83 | 1022.2 |
| 20260902060824 | 66 | 262 | 0.0 | 0.9 | 0.00 | 0.00 | 0.00 | 84 | 1022.2 |
| 20260902060331 | 65 | 261 | 0.0 | 0.9 | 0.00 | 0.00 | 0.00 | 85 | 1022.0 |
| 20260902055832 | 65 | 262 | 0.9 | 0.9 | 0.00 | 0.00 | 0.00 | 86 | 1021.9 |
| 20260902055312 | 64 | 262 | 0.0 | 0.9 | 0.00 | 0.00 | 0.00 | 87 | 1021.9 |
| 20260902054821 | 64 | 261 | 0.0 | 0.9 | 0.00 | 0.00 | 0.00 | 87 | 1022.0 |
| 20260902054323 | 64 | 261 | 0.0 | 0.9 | 0.00 | 0.00 | 0.00 | 87 | 1021.9 |
| 20260902053816 | 63 | 262 | 0.0 | 0.9 | 0.00 | 0.00 | 0.00 | 88 | 1021.8 |
| 20260902053317 | 63 | 261 | 0.0 | 0.0 | 0.00 | 0.00 | 0.00 | 88 | 1021.8 |
| 20260902052825 | 63 | 262 | 0.0 | 0.0 | 0.00 | 0.00 | 0.00 | 88 | 1021.8 |
| 20260902052326 | 63 | 261 | 0.0 | 0.0 | 0.00 | 0.00 | 0.00 | 88 | 1021.7 |
| 20260902051828 | 63 | 261 | 0.0 | 0.9 | 0.00 | 0.00 | 0.00 | 88 | 1021.7 |
| 20260902050813 | 63 | 262 | 0.9 | 3.5 | 0.00 | 0.00 | 0.00 | 88 | 1021.5 |
| 20260902050314 | 63 | 220 | 0.9 | 1.7 | 0.00 | 0.00 | 0.00 | 88 | 1021.5 |
| 20260902045829 | 63 | 222 | 0.0 | 0.9 | 0.00 | 0.00 | 0.00 | 89 | 1021.5 |
| 20260902045331 | 63 | 222 | 0.0 | 0.9 | 0.00 | 0.00 | 0.00 | 89 | 1021.4 |
| 20260902044813 | 63 | 222 | 0.0 | 0.9 | 0.00 | 0.00 | 0.00 | 89 | 1021.4 |
| 20260902044322 | 63 | 222 | 0.0 | 0.9 | 0.00 | 0.00 | 0.00 | 88 | 1021.4 |
| 20260902043824 | 64 | 221 | 0.9 | 0.9 | 0.00 | 0.00 | 0.00 | 89 | 1021.4 |
| 20260902043331 | 64 | 222 | 0.0 | 0.0 | 0.00 | 0.00 | 0.00 | 89 | 1021.5 |
| 20260902042812 | 64 | 222 | 0.0 | 0.9 | 0.00 | 0.00 | 0.00 | 90 | 1021.5 |
| 20260902042314 | 64 | 222 | 0.0 | 0.9 | 0.00 | 0.00 | 0.00 | 90 | 1021.5 |
| 20260902041823 | 64 | 222 | 0.0 | 0.9 | 0.00 | 0.00 | 0.00 | 90 | 1021.5 |
| 20260902041324 | 64 | 222 | 0.9 | 1.7 | 0.00 | 0.00 | 0.00 | 90 | 1021.4 |
| 20260902040833 | 64 | 222 | 0.9 | 1.7 | 0.00 | 0.00 | 0.00 | 90 | 1021.5 |
| 20260902040314 | 64 | 221 | 0.0 | 0.0 | 0.00 | 0.00 | 0.00 | 90 | 1021.5 |
| 20260902035813 | 64 | 222 | 0.0 | 0.0 | 0.00 | 0.00 | 0.00 | 90 | 1021.5 |
| 20260902035321 | 64 | 222 | 0.0 | 0.0 | 0.00 | 0.00 | 0.00 | 90 | 1021.6 |
| 20260902034823 | 64 | 221 | 0.0 | 1.7 | 0.00 | 0.00 | 0.00 | 90 | 1021.6 |
| 20260902034331 | 64 | 221 | 0.9 | 1.7 | 0.00 | 0.00 | 0.00 | 90 | 1021.7 |
| 20260902033812 | 64 | 219 | 0.0 | 0.0 | 0.00 | 0.00 | 0.00 | 89 | 1021.5 |
| 20260902033314 | 64 | 219 | 0.0 | 0.9 | 0.00 | 0.00 | 0.00 | 89 | 1021.6 |
| 20260902032829 | 65 | 219 | 0.0 | 0.9 | 0.00 | 0.00 | 0.00 | 89 | 1021.6 |
| 20260902032331 | 65 | 219 | 0.0 | 0.9 | 0.00 | 0.00 | 0.00 | 89 | 1021.6 |
| 20260902031813 | 65 | 219 | 0.0 | 0.9 | 0.00 | 0.00 | 0.00 | 89 | 1021.5 |
| 20260902031321 | 65 | 219 | 0.0 | 0.9 | 0.00 | 0.00 | 0.00 | 89 | 1021.4 |
| 20260902030823 | 65 | 220 | 0.0 | 0.9 | 0.00 | 0.00 | 0.00 | 89 | 1021.5 |
| 20260902030332 | 65 | 232 | 0.0 | 0.9 | 0.00 | 0.00 | 0.00 | 89 | 1021.5 |
| 20260902025812 | 65 | 232 | 0.0 | 0.9 | 0.00 | 0.00 | 0.00 | 90 | 1021.5 |
| 20260902025314 | 65 | 231 | 0.0 | 0.9 | 0.00 | 0.00 | 0.00 | 90 | 1021.5 |
| 20260902024821 | 65 | 232 | 0.0 | 0.9 | 0.00 | 0.00 | 0.00 | 90 | 1021.5 |
| 20260902024323 | 65 | 231 | 0.0 | 0.9 | 0.00 | 0.00 | 0.00 | 90 | 1021.6 |
| 20260902023832 | 65 | 232 | 0.0 | 0.9 | 0.00 | 0.00 | 0.00 | 89 | 1021.6 |
| 20260902023315 | 65 | 232 | 0.0 | 0.9 | 0.00 | 0.00 | 0.00 | 89 | 1021.6 |
| 20260902022823 | 65 | 232 | 0.0 | 0.9 | 0.00 | 0.00 | 0.00 | 89 | 1021.6 |
| 20260902022331 | 65 | 231 | 0.0 | 0.9 | 0.00 | 0.00 | 0.00 | 89 | 1021.6 |
| 20260902021919 | 65 | 232 | 0.0 | 0.9 | 0.00 | 0.00 | 0.00 | 89 | 1021.5 |
| 20260902021329 | 65 | 232 | 0.0 | 0.0 | 0.00 | 0.00 | 0.00 | 89 | 1021.5 |
| 20260902020839 | 65 | 232 | 0.0 | 0.0 | 0.00 | 0.00 | 0.00 | 89 | 1021.5 |
| 20260902020316 | 65 | 231 | 0.0 | 0.0 | 0.00 | 0.00 | 0.00 | 89 | 1021.4 |
| 20260902015825 | 65 | 232 | 0.0 | 0.0 | 0.00 | 0.00 | 0.00 | 89 | 1021.4 |
| 20260902015326 | 65 | 232 | 0.0 | 0.0 | 0.00 | 0.00 | 0.00 | 89 | 1021.5 |
| 20260902014832 | 66 | 232 | 0.0 | 0.9 | 0.00 | 0.00 | 0.00 | 88 | 1021.4 |
| 20260902014314 | 66 | 232 | 0.0 | 0.9 | 0.00 | 0.00 | 0.00 | 88 | 1021.4 |
| 20260902013815 | 66 | 231 | 0.0 | 0.9 | 0.00 | 0.00 | 0.00 | 88 | 1021.4 |
| 20260902013324 | 66 | 232 | 0.0 | 0.9 | 0.00 | 0.00 | 0.00 | 88 | 1021.4 |
| 20260902012826 | 66 | 232 | 0.0 | 0.9 | 0.00 | 0.00 | 0.00 | 88 | 1021.4 |
| 20260902012335 | 66 | 232 | 0.0 | 0.9 | 0.00 | 0.00 | 0.00 | 88 | 1021.4 |
| 20260902011814 | 66 | 232 | 0.0 | 0.0 | 0.00 | 0.00 | 0.00 | 87 | 1021.5 |
| 20260902011316 | 66 | 231 | 0.0 | 0.9 | 0.00 | 0.00 | 0.00 | 87 | 1021.5 |
| 20260902010824 | 66 | 232 | 0.0 | 0.9 | 0.00 | 0.00 | 0.00 | 87 | 1021.5 |
| 20260902010325 | 67 | 232 | 0.0 | 0.9 | 0.00 | 0.00 | 0.00 | 87 | 1021.5 |
| 20260902005834 | 67 | 232 | 0.0 | 1.7 | 0.00 | 0.00 | 0.00 | 87 | 1021.5 |
| 20260902005316 | 66 | 232 | 0.0 | 1.7 | 0.00 | 0.00 | 0.00 | 88 | 1021.6 |
| 20260902004816 | 66 | 229 | 0.0 | 0.9 | 0.00 | 0.00 | 0.00 | 88 | 1021.6 |
| 20260902004325 | 66 | 229 | 0.0 | 0.9 | 0.00 | 0.00 | 0.00 | 88 | 1021.6 |
| 20260902003828 | 66 | 229 | 0.9 | 0.9 | 0.00 | 0.00 | 0.00 | 88 | 1021.6 |
| 20260902003337 | 67 | 229 | 0.0 | 0.9 | 0.00 | 0.00 | 0.00 | 87 | 1021.6 |
| 20260902002818 | 67 | 229 | 0.9 | 1.7 | 0.00 | 0.00 | 0.00 | 87 | 1021.6 |
| 20260902002320 | 67 | 229 | 0.9 | 1.7 | 0.00 | 0.00 | 0.00 | 86 | 1021.5 |
| 20260902001829 | 67 | 222 | 0.0 | 0.9 | 0.00 | 0.00 | 0.00 | 86 | 1021.5 |
| 20260902001329 | 67 | 222 | 0.9 | 1.7 | 0.00 | 0.00 | 0.00 | 86 | 1021.5 |
| 20260902000830 | 67 | 222 | 0.9 | 2.6 | 0.00 | 0.00 | 0.00 | 87 | 1021.6 |
| 20260902000322 | 67 | 224 | 0.9 | 2.6 | 0.00 | 0.00 | 0.00 | 87 | 1021.5 |
| 20260901235823 | 67 | 228 | 0.0 | 0.9 | 0.00 | 0.00 | 0.00 | 86 | 1021.4 |
| 20260901235333 | 67 | 228 | 0.0 | 0.9 | 0.00 | 0.00 | 0.00 | 86 | 1021.4 |
| 20260901234815 | 67 | 228 | 0.9 | 0.9 | 0.00 | 0.00 | 0.00 | 86 | 1021.4 |
| 20260901234315 | 68 | 228 | 0.0 | 0.9 | 0.00 | 0.00 | 0.00 | 85 | 1021.5 |
| 20260901233820 | 68 | 228 | 0.0 | 0.9 | 0.00 | 0.00 | 0.00 | 85 | 1021.4 |
| 20260901233322 | 68 | 228 | 0.0 | 0.9 | 0.00 | 0.00 | 0.00 | 85 | 1021.5 |
| 20260901232824 | 68 | 228 | 0.0 | 0.9 | 0.00 | 0.00 | 0.00 | 85 | 1021.5 |
| 20260901232313 | 68 | 228 | 0.0 | 0.9 | 0.00 | 0.00 | 0.00 | 85 | 1021.5 |
| 20260901231813 | 68 | 228 | 0.0 | 1.7 | 0.00 | 0.00 | 0.00 | 85 | 1021.5 |
| 20260901231341 | 68 | 228 | 0.9 | 1.7 | 0.00 | 0.00 | 0.00 | 85 | 1021.5 |
| 20260901230823 | 68 | 228 | 0.0 | 1.7 | 0.00 | 0.00 | 0.00 | 85 | 1021.5 |
| 20260901230326 | 68 | 177 | 0.0 | 1.7 | 0.00 | 0.00 | 0.00 | 85 | 1021.4 |
| 20260901225835 | 68 | 207 | 0.0 | 1.7 | 0.00 | 0.00 | 0.00 | 85 | 1021.5 |
| 20260901225316 | 68 | 207 | 0.0 | 1.7 | 0.00 | 0.00 | 0.00 | 85 | 1021.4 |
| 20260901224818 | 68 | 207 | 1.7 | 1.7 | 0.00 | 0.00 | 0.00 | 85 | 1021.4 |
| 20260901224323 | 68 | 207 | 0.9 | 0.9 | 0.00 | 0.00 | 0.00 | 85 | 1021.4 |
| 20260901223825 | 68 | 207 | 0.0 | 0.9 | 0.00 | 0.00 | 0.00 | 84 | 1021.4 |
| 20260901223334 | 69 | 207 | 0.0 | 1.7 | 0.00 | 0.00 | 0.00 | 84 | 1021.3 |
| 20260901222816 | 69 | 207 | 0.9 | 2.6 | 0.00 | 0.00 | 0.00 | 84 | 1021.3 |
| 20260901222323 | 69 | 206 | 0.9 | 3.5 | 0.00 | 0.00 | 0.00 | 84 | 1021.3 |
| 20260901221831 | 69 | 215 | 2.6 | 3.5 | 0.00 | 0.00 | 0.00 | 84 | 1021.4 |
| 20260901221332 | 69 | 141 | 0.0 | 2.6 | 0.00 | 0.00 | 0.00 | 84 | 1021.4 |
| 20260901220841 | 69 | 128 | 0.9 | 2.6 | 0.00 | 0.00 | 0.00 | 83 | 1021.3 |
| 20260901220323 | 69 | 251 | 1.7 | 1.7 | 0.00 | 0.00 | 0.00 | 83 | 1021.2 |
| 20260901215823 | 70 | 252 | 0.0 | 0.9 | 0.00 | 0.00 | 0.00 | 82 | 1021.1 |
| 20260901215331 | 69 | 252 | 0.9 | 0.9 | 0.00 | 0.00 | 0.00 | 83 | 1021.1 |
| 20260901214831 | 70 | 252 | 0.0 | 1.7 | 0.00 | 0.00 | 0.00 | 82 | 1021.0 |
| 20260901214338 | 70 | 251 | 0.0 | 1.7 | 0.00 | 0.00 | 0.00 | 82 | 1021.0 |
| 20260901213819 | 70 | 252 | 0.9 | 1.7 | 0.00 | 0.00 | 0.00 | 81 | 1021.0 |
| 20260901213322 | 70 | 252 | 0.0 | 0.9 | 0.00 | 0.00 | 0.00 | 82 | 1020.9 |
| 20260901212830 | 70 | 252 | 0.0 | 0.9 | 0.00 | 0.00 | 0.00 | 82 | 1021.0 |
| 20260901212315 | 70 | 251 | 0.9 | 1.7 | 0.00 | 0.00 | 0.00 | 82 | 1020.9 |
| 20260901211816 | 70 | 252 | 0.9 | 1.7 | 0.00 | 0.00 | 0.00 | 82 | 1020.8 |
| 20260901211324 | 70 | 251 | 0.9 | 0.9 | 0.00 | 0.00 | 0.00 | 82 | 1020.9 |
| 20260901210826 | 70 | 252 | 0.9 | 0.9 | 0.00 | 0.00 | 0.00 | 82 | 1020.9 |
| 20260901210335 | 70 | 252 | 0.9 | 0.9 | 0.00 | 0.00 | 0.00 | 82 | 1021.0 |
| 20260901205834 | 70 | 251 | 0.0 | 1.7 | 0.00 | 0.00 | 0.00 | 81 | 1021.0 |
| 20260901205315 | 70 | 252 | 1.7 | 1.7 | 0.00 | 0.00 | 0.00 | 81 | 1020.9 |
| 20260901204824 | 71 | 125 | 0.0 | 0.9 | 0.00 | 0.00 | 0.00 | 81 | 1020.9 |
| 20260901204325 | 71 | 126 | 0.0 | 0.9 | 0.00 | 0.00 | 0.00 | 81 | 1020.9 |
| 20260901203834 | 71 | 240 | 0.0 | 0.9 | 0.00 | 0.00 | 0.00 | 81 | 1020.9 |
| 20260901203334 | 71 | 240 | 0.9 | 0.9 | 0.00 | 0.00 | 0.00 | 81 | 1021.0 |
| 20260901202842 | 71 | 240 | 0.0 | 1.7 | 0.00 | 0.00 | 0.00 | 80 | 1021.0 |
| 20260901202323 | 71 | 240 | 0.9 | 1.7 | 0.00 | 0.00 | 0.00 | 80 | 1020.9 |
| 20260901201826 | 71 | 238 | 0.9 | 1.7 | 0.00 | 0.00 | 0.00 | 80 | 1020.9 |
| 20260901201331 | 71 | 236 | 0.9 | 1.7 | 0.00 | 0.00 | 0.00 | 79 | 1020.9 |
| 20260901200832 | 72 | 236 | 1.7 | 2.6 | 0.00 | 0.00 | 0.00 | 78 | 1020.8 |
| 20260901200339 | 72 | 174 | 1.7 | 2.6 | 0.00 | 0.00 | 0.00 | 78 | 1020.8 |
| 20260901195822 | 72 | 150 | 0.9 | 1.7 | 0.00 | 0.00 | 0.00 | 78 | 1020.8 |
| 20260901195323 | 73 | 139 | 1.7 | 2.6 | 0.00 | 0.00 | 0.00 | 77 | 1020.7 |
| 20260901194831 | 73 | 140 | 1.7 | 2.6 | 0.00 | 0.00 | 0.00 | 76 | 1020.6 |
| 20260901194333 | 73 | 134 | 1.7 | 2.6 | 0.00 | 0.00 | 0.00 | 76 | 1020.5 |
| 20260901193838 | 73 | 33 | 0.0 | 0.9 | 0.00 | 0.00 | 0.00 | 76 | 1020.4 |
| 20260901193318 | 73 | 33 | 0.0 | 1.7 | 0.00 | 0.00 | 0.00 | 75 | 1020.4 |
| 20260901192818 | 74 | 33 | 0.0 | 1.7 | 0.00 | 0.00 | 0.00 | 75 | 1020.3 |
| 20260901192327 | 74 | 33 | 0.9 | 1.7 | 0.00 | 0.00 | 0.00 | 74 | 1020.3 |
| 20260901191829 | 74 | 68 | 0.9 | 2.6 | 0.00 | 0.00 | 0.00 | 74 | 1020.2 |
| 20260901191338 | 74 | 68 | 1.7 | 2.6 | 0.00 | 0.00 | 0.00 | 74 | 1020.3 |
| 20260901190818 | 74 | 71 | 1.7 | 2.6 | 0.00 | 0.00 | 0.00 | 73 | 1020.3 |
| 20260901190328 | 75 | 89 | 0.9 | 2.6 | 0.00 | 0.00 | 0.00 | 73 | 1020.2 |
| 20260901185837 | 75 | 304 | 0.9 | 2.6 | 0.00 | 0.00 | 0.00 | 73 | 1020.1 |
| 20260901185318 | 75 | 66 | 1.7 | 2.6 | 0.00 | 0.00 | 0.00 | 72 | 1020.1 |
| 20260901184817 | 75 | 81 | 0.9 | 2.6 | 0.00 | 0.00 | 0.00 | 72 | 1019.9 |
| 20260901184327 | 76 | 87 | 1.7 | 4.3 | 0.00 | 0.00 | 0.00 | 71 | 1020.0 |
| 20260901183832 | 76 | 46 | 3.5 | 5.2 | 0.00 | 0.00 | 0.00 | 71 | 1019.8 |
| 20260901183341 | 76 | 98 | 2.6 | 6.1 | 0.00 | 0.00 | 0.00 | 70 | 1019.8 |
| 20260901182821 | 76 | 76 | 4.3 | 6.1 | 0.00 | 0.00 | 0.00 | 70 | 1019.8 |
| 20260901182324 | 76 | 71 | 4.3 | 6.1 | 0.00 | 0.00 | 0.00 | 69 | 1019.7 |
| 20260901181826 | 77 | 99 | 3.5 | 5.2 | 0.00 | 0.00 | 0.00 | 69 | 1019.7 |
| 20260901181327 | 77 | 97 | 3.5 | 5.2 | 0.00 | 0.00 | 0.00 | 68 | 1019.7 |
| 20260901180836 | 77 | 82 | 3.5 | 7.0 | 0.00 | 0.00 | 0.00 | 67 | 1019.7 |
| 20260901180318 | 77 | 85 | 5.2 | 7.0 | 0.00 | 0.00 | 0.00 | 67 | 1019.7 |
| 20260901175842 | 78 | 84 | 3.5 | 6.1 | 0.00 | 0.00 | 0.00 | 65 | 1019.6 |
| 20260901175323 | 78 | 61 | 3.5 | 6.1 | 0.00 | 0.00 | 0.00 | 65 | 1019.6 |
| 20260901174823 | 79 | 51 | 1.7 | 4.3 | 0.00 | 0.00 | 0.00 | 64 | 1019.5 |
| 20260901173320 | 79 | 49 | 3.5 | 6.1 | 0.00 | 0.00 | 0.00 | 63 | 1019.6 |
| 20260901172821 | 79 | 70 | 1.7 | 4.3 | 0.00 | 0.00 | 0.00 | 63 | 1019.5 |
| 20260901172316 | 79 | 70 | 1.7 | 4.3 | 0.00 | 0.00 | 0.00 | 62 | 1019.5 |
| 20260901171815 | 79 | 34 | 0.9 | 4.3 | 0.00 | 0.00 | 0.00 | 62 | 1019.6 |
| 20260901171316 | 79 | 52 | 3.5 | 7.0 | 0.00 | 0.00 | 0.00 | 62 | 1019.7 |
| 20260901170823 | 80 | 91 | 5.2 | 7.0 | 0.00 | 0.00 | 0.00 | 61 | 1019.6 |
| 20260901170324 | 80 | 70 | 4.3 | 7.0 | 0.00 | 0.00 | 0.00 | 62 | 1019.7 |
| 20260901165831 | 80 | 79 | 3.5 | 7.0 | 0.00 | 0.00 | 0.00 | 61 | 1019.6 |
| 20260901165334 | 80 | 89 | 4.3 | 7.0 | 0.00 | 0.00 | 0.00 | 61 | 1019.5 |
| 20260901164838 | 80 | 87 | 4.3 | 7.8 | 0.00 | 0.00 | 0.00 | 60 | 1019.4 |
| 20260901164318 | 81 | 58 | 5.2 | 8.7 | 0.00 | 0.00 | 0.00 | 60 | 1019.4 |
| 20260901163841 | 81 | 72 | 3.5 | 7.0 | 0.00 | 0.00 | 0.00 | 60 | 1019.3 |
| 20260901163323 | 81 | 77 | 4.3 | 6.1 | 0.00 | 0.00 | 0.00 | 59 | 1019.5 |
| 20260901162824 | 81 | 77 | 4.3 | 7.0 | 0.00 | 0.00 | 0.00 | 58 | 1019.4 |
| 20260901162332 | 82 | 96 | 5.2 | 7.0 | 0.00 | 0.00 | 0.00 | 58 | 1019.4 |
| 20260901161833 | 81 | 93 | 4.3 | 8.7 | 0.00 | 0.00 | 0.00 | 58 | 1019.6 |
| 20260901161316 | 81 | 52 | 6.1 | 8.7 | 0.00 | 0.00 | 0.00 | 58 | 1019.5 |
| 20260901160824 | 81 | 51 | 6.1 | 9.6 | 0.00 | 0.00 | 0.00 | 58 | 1019.5 |
| 20260901160325 | 82 | 91 | 7.0 | 9.6 | 0.00 | 0.00 | 0.00 | 57 | 1019.3 |
| 20260901155818 | 82 | 77 | 7.8 | 11.3 | 0.00 | 0.00 | 0.00 | 57 | 1019.3 |
| 20260901155320 | 82 | 83 | 6.1 | 11.3 | 0.00 | 0.00 | 0.00 | 56 | 1019.3 |
| 20260901154821 | 83 | 81 | 5.2 | 7.8 | 0.00 | 0.00 | 0.00 | 56 | 1019.3 |
| 20260901154330 | 83 | 73 | 4.3 | 6.1 | 0.00 | 0.00 | 0.00 | 56 | 1019.2 |
| 20260901153830 | 84 | 34 | 3.5 | 7.0 | 0.00 | 0.00 | 0.00 | 55 | 1019.2 |
| 20260901153336 | 84 | 62 | 5.2 | 7.0 | 0.00 | 0.00 | 0.00 | 56 | 1019.2 |
| 20260901152816 | 84 | 68 | 5.2 | 11.3 | 0.00 | 0.00 | 0.00 | 56 | 1019.1 |
| 20260901152325 | 84 | 44 | 7.0 | 10.4 | 0.00 | 0.00 | 0.00 | 56 | 1019.1 |
| 20260901151834 | 84 | 75 | 7.8 | 10.4 | 0.00 | 0.00 | 0.00 | 56 | 1019.1 |
| 20260901151331 | 84 | 83 | 7.8 | 10.4 | 0.00 | 0.00 | 0.00 | 56 | 1019.2 |
| 20260901150840 | 85 | 74 | 6.1 | 10.4 | 0.00 | 0.00 | 0.00 | 55 | 1019.3 |
| 20260901150323 | 85 | 34 | 6.1 | 8.7 | 0.00 | 0.00 | 0.00 | 55 | 1019.2 |
| 20260901145831 | 85 | 77 | 5.2 | 11.3 | 0.00 | 0.00 | 0.00 | 55 | 1019.2 |
| 20260901145320 | 86 | 36 | 4.3 | 11.3 | 0.00 | 0.00 | 0.00 | 54 | 1019.3 |
| 20260901144820 | 86 | 98 | 0.9 | 4.3 | 0.00 | 0.00 | 0.00 | 53 | 1019.2 |
| 20260901144321 | 86 | 43 | 0.0 | 2.6 | 0.00 | 0.00 | 0.00 | 51 | 1019.3 |